P/2021 M1 ( LINEAR-Hill )

Japanese version
Home page
Updated on September 18, 2021

---------------------------------------------------------------------

* Profile

Recovery Date June 18, 2021
Magnitude 22.98 mag
Recoverer Pan-STARRS 1 telescope (Haleakala)

* Orbital Elements

Epoch 2022 Jan. 21.0 TT = JDT 2459600.5                                         
T 2022 Jan. 2.13422 TT                                  Rudenko                 
q   1.8062208            (2000.0)            P               Q                  
n   0.14730822     Peri.   75.53411     +0.78708137     -0.61157906             
a   3.5507333      Node   322.07403     +0.50344934     +0.71226851             
e   0.4913105      Incl.    7.52200     +0.35642905     +0.34444829             
P   6.69                                                                        
From 538 observations 2008 Aug. 25-2021 Aug. 17, mean residual 0".8.            

* Magnitudes Graph

        m1 = 11.0 + 5 log d + 25.0 log r(t - 45)

---------------------------------------------------------------------

The orbital elements are published on M.P.E.C. 2021-Q68.
The magnitudes graphs are made with Comet for Windows.

---------------------------------------------------------------------

Copyright(C) Seiichi Yoshida (comet@aerith.net). All rights reserved.